Time,TemperatureF,DewpointF,PressureIn,WindDirection,WindDirectionDegrees,WindSpeedMPH,WindSpeedGustMPH,Humidity,HourlyPrecipIn,Conditions,Clouds,dailyrainin,SoftwareType,DateUTC
2013-01-19 00:02:00,35.9,31.8,29.88,SSW,212,6.0,6.0,85,0.00,,,0.00,Wunderground v.1.15,2013-01-19 06:02:00,
2013-01-19 00:08:00,36.2,32.1,29.88,SW,215,6.0,6.0,85,0.00,,,0.00,Wunderground v.1.15,2013-01-19 06:08:00,
2013-01-19 00:13:00,36.2,31.8,29.88,SW,221,6.0,6.0,84,0.00,,,0.00,Wunderground v.1.15,2013-01-19 06:13:00,
2013-01-19 00:19:00,36.2,32.1,29.88,SW,221,5.0,6.0,85,0.00,,,0.00,Wunderground v.1.15,2013-01-19 06:19:00,
2013-01-19 00:24:00,36.3,31.9,29.88,SW,225,5.0,5.0,84,0.00,,,0.00,Wunderground v.1.15,2013-01-19 06:24:00,
2013-01-19 00:29:00,36.2,31.8,29.88,SW,226,4.0,5.0,84,0.00,,,0.00,Wunderground v.1.15,2013-01-19 06:29:00,
2013-01-19 00:35:00,36.2,31.8,29.88,SW,229,3.0,5.0,84,0.00,,,0.00,Wunderground v.1.15,2013-01-19 06:35:00,
2013-01-19 00:40:00,36.1,31.7,29.88,SW,229,4.0,5.0,84,0.00,,,0.00,Wunderground v.1.15,2013-01-19 06:40:00,
2013-01-19 00:46:00,35.9,31.5,29.88,SW,229,4.0,4.0,84,0.00,,,0.00,Wunderground v.1.15,2013-01-19 06:46:00,
2013-01-19 00:54:00,35.7,31.3,29.88,SW,229,3.0,4.0,84,0.00,,,0.00,Wunderground v.1.15,2013-01-19 06:54:00,
2013-01-19 01:00:00,35.6,31.5,29.88,SW,229,5.0,5.0,85,0.00,,,0.00,Wunderground v.1.15,2013-01-19 07:00:00,
2013-01-19 01:06:00,35.7,31.6,29.87,SW,229,4.0,5.0,85,0.00,,,0.00,Wunderground v.1.15,2013-01-19 07:06:00,
2013-01-19 01:11:00,35.9,31.8,29.87,SW,231,5.0,5.0,85,0.00,,,0.00,Wunderground v.1.15,2013-01-19 07:11:00,
2013-01-19 01:17:00,35.7,31.3,29.88,SW,231,4.0,6.0,84,0.00,,,0.00,Wunderground v.1.15,2013-01-19 07:17:00,
2013-01-19 01:22:00,35.1,30.8,29.87,SW,231,4.0,4.0,84,0.00,,,0.00,Wunderground v.1.15,2013-01-19 07:22:00,
2013-01-19 01:28:00,34.8,30.8,29.87,SW,231,0.0,4.0,85,0.00,,,0.00,Wunderground v.1.15,2013-01-19 07:28:00,
2013-01-19 01:33:00,34.7,30.9,29.87,SW,231,0.0,1.0,86,0.00,,,0.00,Wunderground v.1.15,2013-01-19 07:33:00,
2013-01-19 01:38:00,34.5,30.7,29.87,SW,231,0.0,1.0,86,0.00,,,0.00,Wunderground v.1.15,2013-01-19 07:38:00,
2013-01-19 01:43:00,34.3,30.5,29.88,SW,231,0.0,0.0,86,0.00,,,0.00,Wunderground v.1.15,2013-01-19 07:43:00,
2013-01-19 01:49:00,34.1,30.4,29.88,SW,231,0.0,0.0,86,0.00,,,0.00,Wunderground v.1.15,2013-01-19 07:49:00,
2013-01-19 01:54:00,34.2,30.7,29.87,South,187,0.0,0.0,87,0.00,,,0.00,Wunderground v.1.15,2013-01-19 07:54:00,
2013-01-19 02:00:00,34.8,31.6,29.87,South,187,0.0,0.0,88,0.00,,,0.00,Wunderground v.1.15,2013-01-19 08:00:00,
2013-01-19 02:05:00,35.0,31.5,29.87,South,188,0.0,0.0,87,0.00,,,0.00,Wunderground v.1.15,2013-01-19 08:05:00,
2013-01-19 02:10:00,35.2,31.7,29.87,South,188,5.0,6.0,87,0.00,,,0.00,Wunderground v.1.15,2013-01-19 08:10:00,
2013-01-19 02:15:00,35.2,31.7,29.87,SSW,192,3.0,4.0,87,0.00,,,0.00,Wunderground v.1.15,2013-01-19 08:15:00,
2013-01-19 02:20:00,35.3,31.8,29.87,SSW,194,3.0,8.0,87,0.00,,,0.00,Wunderground v.1.15,2013-01-19 08:20:00,
2013-01-19 02:26:00,35.7,32.2,29.87,SSW,195,7.0,9.0,87,0.00,,,0.00,Wunderground v.1.15,2013-01-19 08:26:00,
2013-01-19 02:32:00,36.0,32.2,29.86,SSW,203,6.0,6.0,86,0.00,,,0.00,Wunderground v.1.15,2013-01-19 08:32:00,
2013-01-19 02:37:00,35.9,32.1,29.86,SSW,200,0.0,7.0,86,0.00,,,0.00,Wunderground v.1.15,2013-01-19 08:37:00,
2013-01-19 02:43:00,35.7,31.9,29.86,SSW,207,4.0,4.0,86,0.00,,,0.00,Wunderground v.1.15,2013-01-19 08:43:00,
2013-01-19 02:48:00,35.6,31.8,29.86,SSW,207,3.0,5.0,86,0.00,,,0.00,Wunderground v.1.15,2013-01-19 08:48:00,
2013-01-19 02:53:00,35.4,31.6,29.86,SSW,198,4.0,4.0,86,0.00,,,0.00,Wunderground v.1.15,2013-01-19 08:53:00,
2013-01-19 02:58:00,35.4,31.6,29.86,SSW,201,5.0,7.0,86,0.00,,,0.00,Wunderground v.1.15,2013-01-19 08:58:00,
2013-01-19 03:03:00,35.4,31.6,29.86,SSW,202,0.0,7.0,86,0.00,,,0.00,Wunderground v.1.15,2013-01-19 09:03:00,
2013-01-19 03:08:00,35.3,31.5,29.86,SSW,202,2.0,7.0,86,0.00,,,0.00,Wunderground v.1.15,2013-01-19 09:08:00,
2013-01-19 03:13:00,35.2,31.4,29.85,SSW,203,4.0,4.0,86,0.00,,,0.00,Wunderground v.1.15,2013-01-19 09:13:00,
2013-01-19 03:18:00,35.2,31.4,29.85,SSW,192,4.0,5.0,86,0.00,,,0.00,Wunderground v.1.15,2013-01-19 09:18:00,
2013-01-19 03:23:00,35.4,31.6,29.84,SSW,195,5.0,6.0,86,0.00,,,0.00,Wunderground v.1.15,2013-01-19 09:23:00,
2013-01-19 03:28:00,35.3,31.2,29.84,SSW,201,5.0,8.0,85,0.00,,,0.00,Wunderground v.1.15,2013-01-19 09:28:00,
2013-01-19 03:34:00,35.4,31.6,29.84,SSW,197,6.0,6.0,86,0.00,,,0.00,Wunderground v.1.15,2013-01-19 09:34:00,
2013-01-19 03:39:00,35.3,31.5,29.84,South,191,7.0,9.0,86,0.00,,,0.00,Wunderground v.1.15,2013-01-19 09:39:00,
2013-01-19 03:44:00,35.2,31.4,29.84,SSW,202,6.0,7.0,86,0.00,,,0.00,Wunderground v.1.15,2013-01-19 09:44:00,
2013-01-19 03:49:00,35.0,31.2,29.84,SSW,198,6.0,7.0,86,0.00,,,0.00,Wunderground v.1.15,2013-01-19 09:49:00,
2013-01-19 03:55:00,34.9,31.1,29.84,SSW,192,5.0,7.0,86,0.00,,,0.00,Wunderground v.1.15,2013-01-19 09:55:00,
2013-01-19 04:00:00,34.5,30.7,29.84,South,189,7.0,7.0,86,0.00,,,0.00,Wunderground v.1.15,2013-01-19 10:00:00,
2013-01-19 04:05:00,34.2,30.7,29.83,South,189,6.0,7.0,87,0.00,,,0.00,Wunderground v.1.15,2013-01-19 10:05:00,
2013-01-19 04:10:00,34.0,30.5,29.83,SSW,192,6.0,7.0,87,0.00,,,0.00,Wunderground v.1.15,2013-01-19 10:10:00,
2013-01-19 04:15:00,33.9,30.4,29.83,SSW,192,5.0,7.0,87,0.00,,,0.00,Wunderground v.1.15,2013-01-19 10:15:00,
2013-01-19 04:20:00,33.7,30.2,29.83,South,190,5.0,7.0,87,0.00,,,0.00,Wunderground v.1.15,2013-01-19 10:20:00,
2013-01-19 04:25:00,33.7,30.5,29.83,South,188,5.0,7.0,88,0.00,,,0.00,Wunderground v.1.15,2013-01-19 10:25:00,
2013-01-19 04:30:00,33.7,30.5,29.83,SSW,198,6.0,7.0,88,0.00,,,0.00,Wunderground v.1.15,2013-01-19 10:30:00,
2013-01-19 04:35:00,33.6,30.4,29.83,SSW,198,6.0,7.0,88,0.00,,,0.00,Wunderground v.1.15,2013-01-19 10:35:00,
2013-01-19 04:40:00,33.6,30.4,29.83,SSW,200,6.0,8.0,88,0.00,,,0.00,Wunderground v.1.15,2013-01-19 10:40:00,
2013-01-19 04:45:00,33.5,30.3,29.83,SSW,195,6.0,7.0,88,0.00,,,0.00,Wunderground v.1.15,2013-01-19 10:45:00,
2013-01-19 04:50:00,33.3,30.1,29.83,SSW,198,4.0,7.0,88,0.00,,,0.00,Wunderground v.1.15,2013-01-19 10:50:00,
2013-01-19 04:55:00,33.0,29.8,29.83,SSW,196,4.0,5.0,88,0.00,,,0.00,Wunderground v.1.15,2013-01-19 10:55:00,
2013-01-19 05:00:00,32.8,29.9,29.82,SSW,192,4.0,5.0,89,0.00,,,0.00,Wunderground v.1.15,2013-01-19 11:00:00,
2013-01-19 05:05:00,32.8,29.9,29.82,SSW,198,3.0,5.0,89,0.00,,,0.00,Wunderground v.1.15,2013-01-19 11:05:00,
2013-01-19 05:10:00,33.0,30.4,29.82,SSW,194,5.0,7.0,90,0.00,,,0.00,Wunderground v.1.15,2013-01-19 11:10:00,
2013-01-19 06:47:00,35.2,32.0,29.82,West,273,2.0,5.0,88,0.00,,,0.00,Wunderground v.1.15,2013-01-19 12:47:00,
2013-01-19 06:48:00,35.2,32.0,29.82,West,273,3.0,5.0,88,0.00,,,0.00,Wunderground v.1.15,2013-01-19 12:48:00,
2013-01-19 06:53:00,35.1,31.9,29.82,WSW,247,4.0,5.0,88,0.00,,,0.00,Wunderground v.1.15,2013-01-19 12:53:00,
2013-01-19 06:58:00,35.2,32.0,29.82,SW,223,5.0,7.0,88,0.00,,,0.00,Wunderground v.1.15,2013-01-19 12:58:00,
2013-01-19 07:04:00,35.2,32.3,29.81,SW,225,6.0,7.0,89,0.00,,,0.00,Wunderground v.1.15,2013-01-19 13:04:00,
2013-01-19 07:09:00,35.5,32.6,29.82,SW,226,6.0,8.0,89,0.00,,,0.00,Wunderground v.1.15,2013-01-19 13:09:00,
2013-01-19 07:14:00,35.7,32.5,29.81,SW,223,6.0,6.0,88,0.00,,,0.00,Wunderground v.1.15,2013-01-19 13:14:00,
2013-01-19 07:19:00,35.8,32.6,29.81,SW,217,6.0,8.0,88,0.00,,,0.00,Wunderground v.1.15,2013-01-19 13:19:00,
2013-01-19 07:24:00,35.7,32.5,29.82,SW,226,5.0,6.0,88,0.00,,,0.00,Wunderground v.1.15,2013-01-19 13:24:00,
2013-01-19 07:29:00,35.6,32.4,29.81,SW,218,6.0,7.0,88,0.00,,,0.00,Wunderground v.1.15,2013-01-19 13:29:00,
2013-01-19 07:34:00,35.6,32.7,29.81,SSW,211,6.0,7.0,89,0.00,,,0.00,Wunderground v.1.15,2013-01-19 13:34:00,
2013-01-19 07:39:00,35.6,32.4,29.80,SSW,213,8.0,9.0,88,0.00,,,0.00,Wunderground v.1.15,2013-01-19 13:39:00,
2013-01-19 07:44:00,35.7,32.5,29.81,SSW,211,9.0,10.0,88,0.00,,,0.00,Wunderground v.1.15,2013-01-19 13:44:00,
2013-01-19 07:49:00,35.7,32.5,29.79,SSW,193,8.0,10.0,88,0.00,,,0.00,Wunderground v.1.15,2013-01-19 13:49:00,
2013-01-19 07:54:00,35.4,32.2,29.79,South,188,8.0,10.0,88,0.00,,,0.00,Wunderground v.1.15,2013-01-19 13:54:00,
2013-01-19 07:59:00,35.4,32.5,29.78,SSW,194,8.0,11.0,89,0.00,,,0.00,Wunderground v.1.15,2013-01-19 13:59:00,
2013-01-19 08:04:00,35.6,32.7,29.78,South,190,10.0,11.0,89,0.00,,,0.00,Wunderground v.1.15,2013-01-19 14:04:00,
2013-01-19 08:09:00,35.9,33.0,29.80,SW,223,9.0,11.0,89,0.00,,,0.00,Wunderground v.1.15,2013-01-19 14:09:00,
2013-01-19 08:14:00,36.3,33.4,29.81,WSW,242,8.0,12.0,89,0.00,,,0.00,Wunderground v.1.15,2013-01-19 14:14:00,
2013-01-19 08:19:00,36.7,33.5,29.81,WSW,240,6.0,12.0,88,0.00,,,0.00,Wunderground v.1.15,2013-01-19 14:19:00,
2013-01-19 08:25:00,36.8,33.3,29.81,SW,223,8.0,9.0,87,0.00,,,0.00,Wunderground v.1.15,2013-01-19 14:25:00,
2013-01-19 08:30:00,36.9,33.4,29.81,SW,225,8.0,10.0,87,0.00,,,0.00,Wunderground v.1.15,2013-01-19 14:30:00,
2013-01-19 08:35:00,37.1,33.6,29.80,SW,224,12.0,12.0,87,0.00,,,0.00,Wunderground v.1.15,2013-01-19 14:35:00,
2013-01-19 08:40:00,37.5,33.7,29.80,SW,227,10.0,14.0,86,0.00,,,0.00,Wunderground v.1.15,2013-01-19 14:40:00,
2013-01-19 08:45:00,37.6,33.8,29.80,SW,232,11.0,11.0,86,0.00,,,0.00,Wunderground v.1.15,2013-01-19 14:45:00,
2013-01-19 08:50:00,37.8,33.7,29.81,WSW,248,10.0,13.0,85,0.00,,,0.00,Wunderground v.1.15,2013-01-19 14:50:00,
2013-01-19 08:55:00,37.9,33.8,29.81,SW,225,8.0,9.0,85,0.00,,,0.00,Wunderground v.1.15,2013-01-19 14:55:00,
2013-01-19 09:00:00,37.9,34.1,29.81,SW,226,7.0,9.0,86,0.00,,,0.00,Wunderground v.1.15,2013-01-19 15:00:00,
2013-01-19 09:05:00,37.9,34.1,29.81,WSW,240,6.0,11.0,86,0.00,,,0.00,Wunderground v.1.15,2013-01-19 15:05:00,
2013-01-19 09:10:00,37.9,33.8,29.81,SW,221,7.0,9.0,85,0.00,,,0.00,Wunderground v.1.15,2013-01-19 15:10:00,
2013-01-19 09:15:00,37.8,34.0,29.81,SW,217,8.0,10.0,86,0.00,,,0.00,Wunderground v.1.15,2013-01-19 15:15:00,
2013-01-19 09:20:00,37.8,34.0,29.81,SW,221,12.0,12.0,86,0.00,,,0.00,Wunderground v.1.15,2013-01-19 15:20:00,
2013-01-19 09:25:00,37.9,33.8,29.81,SW,229,13.0,13.0,85,0.00,,,0.00,Wunderground v.1.15,2013-01-19 15:25:00,
2013-01-19 09:30:00,38.1,34.0,29.82,SW,228,10.0,14.0,85,0.00,,,0.00,Wunderground v.1.15,2013-01-19 15:30:00,
2013-01-19 09:35:00,38.2,34.1,29.82,SW,222,9.0,12.0,85,0.00,,,0.00,Wunderground v.1.15,2013-01-19 15:35:00,
2013-01-19 09:40:00,38.3,34.2,29.81,SW,231,12.0,13.0,85,0.00,,,0.00,Wunderground v.1.15,2013-01-19 15:40:00,
2013-01-19 09:46:00,38.4,34.3,29.82,WSW,252,12.0,12.0,85,0.00,,,0.00,Wunderground v.1.15,2013-01-19 15:46:00,
2013-01-19 09:51:00,38.7,34.3,29.83,SW,236,12.0,13.0,84,0.00,,,0.00,Wunderground v.1.15,2013-01-19 15:51:00,
2013-01-19 09:56:00,39.0,34.6,29.84,West,265,8.0,14.0,84,0.00,,,0.00,Wunderground v.1.15,2013-01-19 15:56:00,
2013-01-19 10:04:00,39.4,34.4,29.83,WSW,257,11.0,11.0,82,0.00,,,0.00,Wunderground v.1.15,2013-01-19 16:04:00,
2013-01-19 10:09:00,39.8,34.4,29.83,WSW,243,10.0,11.0,81,0.00,,,0.00,Wunderground v.1.15,2013-01-19 16:09:00,
2013-01-19 10:14:00,39.9,34.5,29.83,WSW,242,9.0,14.0,81,0.00,,,0.00,Wunderground v.1.15,2013-01-19 16:14:00,
2013-01-19 10:19:00,39.9,34.5,29.83,SW,234,7.0,14.0,81,0.00,,,0.00,Wunderground v.1.15,2013-01-19 16:19:00,
2013-01-19 10:26:00,39.9,34.5,29.83,WSW,247,5.0,5.0,81,0.00,,,0.00,Wunderground v.1.15,2013-01-19 16:26:00,
2013-01-19 10:32:00,40.0,34.6,29.83,WSW,244,7.0,7.0,81,0.00,,,0.00,Wunderground v.1.15,2013-01-19 16:32:00,
2013-01-19 10:37:00,40.5,35.1,29.82,SW,236,8.0,9.0,81,0.00,,,0.00,Wunderground v.1.15,2013-01-19 16:37:00,
2013-01-19 10:42:00,40.8,35.4,29.82,WSW,240,7.0,8.0,81,0.00,,,0.00,Wunderground v.1.15,2013-01-19 16:42:00,
2013-01-19 10:47:00,41.2,35.8,29.82,WSW,237,10.0,11.0,81,0.00,,,0.00,Wunderground v.1.15,2013-01-19 16:47:00,
2013-01-19 10:52:00,41.8,36.1,29.81,WSW,241,7.0,8.0,80,0.00,,,0.00,Wunderground v.1.15,2013-01-19 16:52:00,
2013-01-19 10:59:00,42.3,36.3,29.81,WSW,242,10.0,12.0,79,0.00,,,0.00,Wunderground v.1.15,2013-01-19 16:59:00,
2013-01-19 11:08:00,42.9,35.2,29.81,WSW,248,9.0,9.0,74,0.00,,,0.00,Wunderground v.1.15,2013-01-19 17:08:00,
2013-01-19 11:13:00,43.4,36.0,29.81,WSW,248,13.0,13.0,75,0.00,,,0.00,Wunderground v.1.15,2013-01-19 17:13:00,
2013-01-19 11:18:00,43.8,35.0,29.81,WSW,248,11.0,14.0,71,0.00,,,0.00,Wunderground v.1.15,2013-01-19 17:18:00,
2013-01-19 11:23:00,44.2,34.7,29.80,WSW,249,9.0,13.0,69,0.00,,,0.00,Wunderground v.1.15,2013-01-19 17:23:00,
2013-01-19 11:28:00,44.3,35.5,29.80,WSW,255,10.0,13.0,71,0.00,,,0.00,Wunderground v.1.15,2013-01-19 17:28:00,
2013-01-19 11:33:00,44.7,35.9,29.81,West,269,10.0,10.0,71,0.00,,,0.00,Wunderground v.1.15,2013-01-19 17:33:00,
2013-01-19 11:38:00,45.0,35.8,29.81,West,269,14.0,15.0,70,0.00,,,0.00,Wunderground v.1.15,2013-01-19 17:38:00,
2013-01-19 11:53:00,45.9,35.6,29.80,WSW,254,14.0,16.0,67,0.00,,,0.00,Wunderground v.1.15,2013-01-19 17:53:00,
2013-01-19 11:59:00,45.4,35.5,29.80,West,262,14.0,18.0,68,0.00,,,0.00,Wunderground v.1.15,2013-01-19 17:59:00,
2013-01-19 12:04:00,45.9,35.9,29.80,West,263,15.0,17.0,68,0.00,,,0.00,Wunderground v.1.15,2013-01-19 18:04:00,
2013-01-19 12:09:00,46.2,35.8,29.80,WSW,254,13.0,15.0,67,0.00,,,0.00,Wunderground v.1.15,2013-01-19 18:09:00,
2013-01-19 12:15:00,46.5,36.1,29.79,West,270,15.0,18.0,67,0.00,,,0.00,Wunderground v.1.15,2013-01-19 18:15:00,
2013-01-19 12:21:00,46.7,35.9,29.79,West,271,15.0,18.0,66,0.00,,,0.00,Wunderground v.1.15,2013-01-19 18:21:00,
2013-01-19 12:26:00,47.0,36.6,29.79,West,271,13.0,14.0,67,0.00,,,0.00,Wunderground v.1.15,2013-01-19 18:26:00,
2013-01-19 12:33:00,47.5,35.5,29.79,West,271,16.0,16.0,63,0.00,,,0.00,Wunderground v.1.15,2013-01-19 18:33:00,
2013-01-19 12:38:00,47.6,35.6,29.79,West,277,15.0,16.0,63,0.00,,,0.00,Wunderground v.1.15,2013-01-19 18:38:00,
2013-01-19 12:43:00,47.8,36.2,29.79,WNW,298,15.0,15.0,64,0.00,,,0.00,Wunderground v.1.15,2013-01-19 18:43:00,
2013-01-19 12:49:00,48.1,36.1,29.79,WNW,294,18.0,19.0,63,0.00,,,0.00,Wunderground v.1.15,2013-01-19 18:49:00,
2013-01-19 12:54:00,47.9,35.9,29.79,West,279,14.0,19.0,63,0.00,,,0.00,Wunderground v.1.15,2013-01-19 18:54:00,
2013-01-19 12:59:00,47.9,36.3,29.78,West,276,17.0,22.0,64,0.00,,,0.00,Wunderground v.1.15,2013-01-19 18:59:00,
2013-01-19 13:04:00,47.8,35.4,29.79,West,276,17.0,18.0,62,0.00,,,0.00,Wunderground v.1.15,2013-01-19 19:04:00,
2013-01-19 13:09:00,47.8,36.2,29.79,WNW,296,16.0,17.0,64,0.00,,,0.00,Wunderground v.1.15,2013-01-19 19:09:00,
2013-01-19 13:15:00,48.0,36.4,29.79,West,281,13.0,17.0,64,0.00,,,0.00,Wunderground v.1.15,2013-01-19 19:15:00,
2013-01-19 13:20:00,48.3,36.7,29.79,WNW,291,16.0,21.0,64,0.00,,,0.00,Wunderground v.1.15,2013-01-19 19:20:00,
2013-01-19 13:25:00,48.2,37.0,29.80,WNW,298,19.0,21.0,65,0.00,,,0.00,Wunderground v.1.15,2013-01-19 19:25:00,
2013-01-19 13:30:00,48.2,37.0,29.80,West,281,15.0,24.0,65,0.00,,,0.00,Wunderground v.1.15,2013-01-19 19:30:00,
2013-01-19 13:35:00,48.2,37.0,29.80,WNW,287,25.0,25.0,65,0.00,,,0.00,Wunderground v.1.15,2013-01-19 19:35:00,
2013-01-19 13:41:00,48.1,36.9,29.80,WNW,284,21.0,25.0,65,0.00,,,0.00,Wunderground v.1.15,2013-01-19 19:41:00,
2013-01-19 13:46:00,48.3,37.5,29.80,WNW,284,20.0,23.0,66,0.00,,,0.00,Wunderground v.1.15,2013-01-19 19:46:00,
2013-01-19 13:53:00,48.5,37.3,29.80,WNW,298,18.0,18.0,65,0.00,,,0.00,Wunderground v.1.15,2013-01-19 19:53:00,
2013-01-19 13:58:00,48.4,36.8,29.80,WNW,301,20.0,22.0,64,0.00,,,0.00,Wunderground v.1.15,2013-01-19 19:58:00,
2013-01-19 14:04:00,48.4,36.8,29.80,WNW,294,18.0,21.0,64,0.00,,,0.00,Wunderground v.1.15,2013-01-19 20:04:00,
2013-01-19 14:09:00,48.5,37.3,29.80,WNW,284,18.0,20.0,65,0.00,,,0.00,Wunderground v.1.15,2013-01-19 20:09:00,
2013-01-19 14:15:00,48.6,37.0,29.80,NW,304,12.0,19.0,64,0.00,,,0.00,Wunderground v.1.15,2013-01-19 20:15:00,
2013-01-19 14:20:00,48.7,37.1,29.80,WNW,288,14.0,19.0,64,0.00,,,0.00,Wunderground v.1.15,2013-01-19 20:20:00,
2013-01-19 14:25:00,48.7,37.5,29.80,WNW,288,15.0,19.0,65,0.00,,,0.00,Wunderground v.1.15,2013-01-19 20:25:00,
2013-01-19 14:30:00,48.6,37.0,29.80,WNW,297,12.0,20.0,64,0.00,,,0.00,Wunderground v.1.15,2013-01-19 20:30:00,
2013-01-19 14:35:00,48.7,37.5,29.80,WNW,283,13.0,18.0,65,0.00,,,0.00,Wunderground v.1.15,2013-01-19 20:35:00,
2013-01-19 14:43:00,48.9,37.6,29.80,WNW,296,13.0,15.0,65,0.00,,,0.00,Wunderground v.1.15,2013-01-19 20:43:00,
2013-01-19 14:48:00,49.0,37.7,29.81,WNW,300,16.0,18.0,65,0.00,,,0.00,Wunderground v.1.15,2013-01-19 20:48:00,
2013-01-19 14:53:00,49.0,37.7,29.81,West,269,13.0,17.0,65,0.00,,,0.00,Wunderground v.1.15,2013-01-19 20:53:00,
2013-01-19 14:58:00,49.1,37.0,29.81,WNW,296,19.0,22.0,63,0.00,,,0.00,Wunderground v.1.15,2013-01-19 20:58:00,
2013-01-19 15:04:00,49.1,37.0,29.81,WNW,285,13.0,13.0,63,0.00,,,0.00,Wunderground v.1.15,2013-01-19 21:04:00,
2013-01-19 15:09:00,49.1,37.4,29.82,WNW,283,15.0,17.0,64,0.00,,,0.00,Wunderground v.1.15,2013-01-19 21:09:00,
2013-01-19 15:14:00,49.1,37.4,29.82,WNW,292,17.0,23.0,64,0.00,,,0.00,Wunderground v.1.15,2013-01-19 21:14:00,
2013-01-19 15:19:00,49.0,37.7,29.83,NW,304,16.0,23.0,65,0.00,,,0.00,Wunderground v.1.15,2013-01-19 21:19:00,
2013-01-19 15:25:00,48.9,37.6,29.83,WNW,291,18.0,18.0,65,0.00,,,0.00,Wunderground v.1.15,2013-01-19 21:25:00,
2013-01-19 15:30:00,48.8,37.9,29.84,WNW,292,13.0,21.0,66,0.00,,,0.00,Wunderground v.1.15,2013-01-19 21:30:00,
2013-01-19 15:35:00,48.7,37.1,29.84,WNW,292,19.0,20.0,64,0.00,,,0.00,Wunderground v.1.15,2013-01-19 21:35:00,
2013-01-19 15:40:00,48.5,37.3,29.85,WNW,293,16.0,20.0,65,0.00,,,0.00,Wunderground v.1.15,2013-01-19 21:40:00,
2013-01-19 15:45:00,48.2,37.0,29.85,WNW,302,17.0,21.0,65,0.00,,,0.00,Wunderground v.1.15,2013-01-19 21:45:00,
2013-01-19 15:50:00,48.0,37.2,29.85,WNW,298,21.0,23.0,66,0.00,,,0.00,Wunderground v.1.15,2013-01-19 21:50:00,
2013-01-19 15:55:00,47.7,37.3,29.86,NW,306,15.0,18.0,67,0.00,,,0.00,Wunderground v.1.15,2013-01-19 21:55:00,
2013-01-19 16:01:00,47.3,37.6,29.86,WNW,300,13.0,16.0,69,0.00,,,0.00,Wunderground v.1.15,2013-01-19 22:01:00,
2013-01-19 16:06:00,47.0,37.4,29.87,WNW,302,15.0,15.0,69,0.00,,,0.00,Wunderground v.1.15,2013-01-19 22:06:00,
2013-01-19 16:13:00,46.6,37.0,29.87,NW,308,15.0,15.0,69,0.00,,,0.00,Wunderground v.1.15,2013-01-19 22:13:00,
2013-01-19 16:18:00,46.3,36.3,29.88,NW,311,17.0,21.0,68,0.00,,,0.00,Wunderground v.1.15,2013-01-19 22:18:00,
2013-01-19 16:23:00,45.9,35.9,29.88,NW,309,19.0,20.0,68,0.00,,,0.00,Wunderground v.1.15,2013-01-19 22:23:00,
2013-01-19 16:29:00,45.3,35.7,29.89,NW,313,24.0,24.0,69,0.00,,,0.00,Wunderground v.1.15,2013-01-19 22:29:00,
2013-01-19 16:34:00,45.0,35.4,29.89,NW,305,13.0,20.0,69,0.00,,,0.00,Wunderground v.1.15,2013-01-19 22:34:00,
2013-01-19 16:39:00,44.5,35.7,29.89,NW,322,17.0,21.0,71,0.00,,,0.00,Wunderground v.1.15,2013-01-19 22:39:00,
2013-01-19 16:44:00,43.9,35.5,29.89,NW,306,15.0,17.0,72,0.00,,,0.00,Wunderground v.1.15,2013-01-19 22:44:00,
2013-01-19 16:49:00,43.3,35.2,29.90,NW,316,9.0,18.0,73,0.00,,,0.00,Wunderground v.1.15,2013-01-19 22:49:00,
2013-01-19 16:54:00,42.5,35.1,29.90,NW,313,11.0,15.0,75,0.00,,,0.00,Wunderground v.1.15,2013-01-19 22:54:00,
2013-01-19 17:02:00,41.6,34.6,29.90,NW,311,11.0,11.0,76,0.00,,,0.00,Wunderground v.1.15,2013-01-19 23:02:00,
2013-01-19 17:08:00,41.1,34.4,29.90,NW,310,10.0,13.0,77,0.00,,,0.00,Wunderground v.1.15,2013-01-19 23:08:00,
2013-01-19 17:13:00,40.7,34.4,29.90,WNW,300,11.0,13.0,78,0.00,,,0.00,Wunderground v.1.15,2013-01-19 23:13:00,
2013-01-19 17:18:00,40.6,34.3,29.90,WNW,294,8.0,13.0,78,0.00,,,0.00,Wunderground v.1.15,2013-01-19 23:18:00,
2013-01-19 17:23:00,40.5,33.9,29.90,WNW,298,12.0,12.0,77,0.00,,,0.00,Wunderground v.1.15,2013-01-19 23:23:00,
2013-01-19 17:29:00,40.3,33.7,29.91,WNW,297,12.0,14.0,77,0.00,,,0.00,Wunderground v.1.15,2013-01-19 23:29:00,
2013-01-19 17:34:00,40.1,33.5,29.92,WNW,286,11.0,12.0,77,0.00,,,0.00,Wunderground v.1.15,2013-01-19 23:34:00,
2013-01-19 17:39:00,39.6,33.3,29.92,WNW,294,12.0,13.0,78,0.00,,,0.00,Wunderground v.1.15,2013-01-19 23:39:00,
2013-01-19 17:53:00,39.8,33.2,29.93,NW,304,15.0,16.0,77,0.00,,,0.00,Wunderground v.1.15,2013-01-19 23:53:00,
2013-01-19 17:58:00,39.5,32.9,29.93,NW,313,14.0,17.0,77,0.00,,,0.00,Wunderground v.1.15,2013-01-19 23:58:00,
2013-01-19 18:03:00,39.0,32.7,29.93,WNW,298,13.0,15.0,78,0.00,,,0.00,Wunderground v.1.15,2013-01-20 00:03:00,
2013-01-19 18:08:00,38.6,32.6,29.94,WNW,303,11.0,16.0,79,0.00,,,0.00,Wunderground v.1.15,2013-01-20 00:08:00,
2013-01-19 18:14:00,38.1,32.5,29.94,NW,305,12.0,13.0,80,0.00,,,0.00,Wunderground v.1.15,2013-01-20 00:14:00,
2013-01-19 18:19:00,37.7,32.4,29.94,WNW,302,10.0,14.0,81,0.00,,,0.00,Wunderground v.1.15,2013-01-20 00:19:00,
2013-01-19 18:24:00,37.7,32.7,29.95,NW,311,19.0,19.0,82,0.00,,,0.00,Wunderground v.1.15,2013-01-20 00:24:00,
2013-01-19 18:29:00,38.1,32.5,29.95,WNW,302,19.0,20.0,80,0.00,,,0.00,Wunderground v.1.15,2013-01-20 00:29:00,
2013-01-19 18:34:00,38.4,32.8,29.95,WNW,300,26.0,26.0,80,0.00,,,0.00,Wunderground v.1.15,2013-01-20 00:34:00,
2013-01-19 18:39:00,39.0,32.1,29.95,NW,312,26.0,30.0,76,0.00,,,0.00,Wunderground v.1.15,2013-01-20 00:39:00,
2013-01-19 18:45:00,39.1,31.5,29.96,NW,322,21.0,29.0,74,0.00,,,0.00,Wunderground v.1.15,2013-01-20 00:45:00,
2013-01-19 18:50:00,38.7,31.5,29.96,NW,314,20.0,29.0,75,0.00,,,0.00,Wunderground v.1.15,2013-01-20 00:50:00,
2013-01-19 18:55:00,38.6,31.4,29.96,NW,309,20.0,28.0,75,0.00,,,0.00,Wunderground v.1.15,2013-01-20 00:55:00,
2013-01-19 19:00:00,38.5,31.9,29.97,NW,312,22.0,26.0,77,0.00,,,0.00,Wunderground v.1.15,2013-01-20 01:00:00,
2013-01-19 19:12:00,37.2,31.3,29.98,NW,319,25.0,25.0,79,0.00,,,0.00,Wunderground v.1.15,2013-01-20 01:12:00,
2013-01-19 19:18:00,36.2,30.6,29.99,NNW,330,25.0,29.0,80,0.00,,,0.00,Wunderground v.1.15,2013-01-20 01:18:00,
2013-01-19 19:23:00,35.2,29.6,29.99,NW,309,25.0,25.0,80,0.00,,,0.00,Wunderground v.1.15,2013-01-20 01:23:00,
2013-01-19 19:28:00,34.5,29.3,30.00,NW,309,29.0,29.0,81,0.00,,,0.00,Wunderground v.1.15,2013-01-20 01:28:00,
2013-01-19 19:34:00,34.0,28.8,30.00,NNW,342,30.0,30.0,81,0.00,,,0.00,Wunderground v.1.15,2013-01-20 01:34:00,
2013-01-19 19:39:00,33.5,28.3,30.01,NW,321,20.0,32.0,81,0.00,,,0.00,Wunderground v.1.15,2013-01-20 01:39:00,
2013-01-19 19:51:00,32.2,27.6,30.02,NNW,339,23.0,32.0,83,0.00,,,0.00,Wunderground v.1.15,2013-01-20 01:51:00,
2013-01-19 19:56:00,31.7,27.1,30.02,NW,325,29.0,32.0,83,0.00,,,0.00,Wunderground v.1.15,2013-01-20 01:56:00,
2013-01-19 20:12:00,30.8,25.7,30.04,NW,326,25.0,26.0,81,0.00,,,0.00,Wunderground v.1.15,2013-01-20 02:12:00,
2013-01-19 20:17:00,30.5,25.4,30.04,NNW,327,32.0,33.0,81,0.00,,,0.00,Wunderground v.1.15,2013-01-20 02:17:00,
2013-01-19 20:22:00,30.0,24.6,30.05,NNW,338,25.0,29.0,80,0.00,,,0.00,Wunderground v.1.15,2013-01-20 02:22:00,
2013-01-19 20:29:00,28.1,21.8,30.06,NW,325,30.0,42.0,77,0.00,,,0.00,Wunderground v.1.15,2013-01-20 02:29:00,
2013-01-19 20:42:00,26.3,19.1,30.07,NW,306,30.0,31.0,74,0.00,,,0.00,Wunderground v.1.15,2013-01-20 02:42:00,
2013-01-19 20:48:00,25.9,19.4,30.07,NNW,329,26.0,31.0,76,0.00,,,0.00,Wunderground v.1.15,2013-01-20 02:48:00,
2013-01-19 20:54:00,25.3,17.9,30.08,NW,319,34.0,34.0,73,0.00,,,0.00,Wunderground v.1.15,2013-01-20 02:54:00,
2013-01-19 20:59:00,24.9,16.2,30.08,NW,323,31.0,38.0,69,0.00,,,0.00,Wunderground v.1.15,2013-01-20 02:59:00,
2013-01-19 21:14:00,23.8,16.4,30.09,NNW,327,25.0,25.0,73,0.00,,,0.00,Wunderground v.1.15,2013-01-20 03:14:00,
2013-01-19 21:19:00,23.3,15.9,30.09,NW,321,30.0,32.0,73,0.00,,,0.00,Wunderground v.1.15,2013-01-20 03:19:00,
2013-01-19 21:25:00,22.4,14.4,30.10,NNW,327,32.0,37.0,71,0.00,,,0.00,Wunderground v.1.15,2013-01-20 03:25:00,
2013-01-19 21:30:00,22.0,14.0,30.11,NW,325,29.0,37.0,71,0.00,,,0.00,Wunderground v.1.15,2013-01-20 03:30:00,
2013-01-19 21:36:00,21.8,14.5,30.11,NW,318,30.0,33.0,73,0.00,,,0.00,Wunderground v.1.15,2013-01-20 03:36:00,
2013-01-19 21:50:00,20.8,13.5,30.12,NW,309,25.0,30.0,73,0.00,,,0.00,Wunderground v.1.15,2013-01-20 03:50:00,
2013-01-19 22:03:00,20.3,13.3,30.13,NW,316,23.0,26.0,74,0.00,,,0.00,Wunderground v.1.15,2013-01-20 04:03:00,
2013-01-19 22:08:00,20.1,13.1,30.13,NW,317,30.0,30.0,74,0.00,,,0.00,Wunderground v.1.15,2013-01-20 04:08:00,
2013-01-19 22:13:00,19.9,12.9,30.14,NW,315,23.0,27.0,74,0.00,,,0.00,Wunderground v.1.15,2013-01-20 04:13:00,
2013-01-19 22:18:00,19.4,11.5,30.14,NNW,336,28.0,32.0,71,0.00,,,0.00,Wunderground v.1.15,2013-01-20 04:18:00,
2013-01-19 22:28:00,19.1,11.9,30.15,NW,323,26.0,26.0,73,0.00,,,0.00,Wunderground v.1.15,2013-01-20 04:28:00,
2013-01-19 22:41:00,18.7,11.2,30.16,NW,322,28.0,30.0,72,0.00,,,0.00,Wunderground v.1.15,2013-01-20 04:41:00,
2013-01-19 22:46:00,18.5,10.7,30.16,NNW,329,27.0,28.0,71,0.00,,,0.00,Wunderground v.1.15,2013-01-20 04:46:00,
2013-01-19 23:03:00,17.5,10.0,30.18,NW,326,28.0,28.0,72,0.00,,,0.00,Wunderground v.1.15,2013-01-20 05:03:00,
2013-01-19 23:05:00,17.3,9.5,30.19,NW,317,19.0,28.0,71,0.00,,,0.00,Wunderground v.1.15,2013-01-20 05:05:00,
2013-01-19 23:10:00,17.2,10.0,30.19,NW,312,21.0,25.0,73,0.00,,,0.00,Wunderground v.1.15,2013-01-20 05:10:00,
2013-01-19 23:22:00,16.8,9.6,30.19,NW,319,23.0,23.0,73,0.00,,,0.00,Wunderground v.1.15,2013-01-20 05:22:00,
2013-01-19 23:27:00,16.6,9.8,30.19,NW,304,22.0,28.0,74,0.00,,,0.00,Wunderground v.1.15,2013-01-20 05:27:00,
2013-01-19 23:34:00,16.3,9.2,30.19,NW,314,25.0,25.0,73,0.00,,,0.00,Wunderground v.1.15,2013-01-20 05:34:00,
2013-01-19 23:39:00,15.8,8.4,30.19,NW,325,23.0,28.0,72,0.00,,,0.00,Wunderground v.1.15,2013-01-20 05:39:00,
2013-01-19 23:44:00,15.7,8.3,30.19,NW,319,20.0,27.0,72,0.00,,,0.00,Wunderground v.1.15,2013-01-20 05:44:00,
2013-01-19 23:49:00,15.6,8.2,30.20,NW,309,20.0,27.0,72,0.00,,,0.00,Wunderground v.1.15,2013-01-20 05:49:00,
2013-01-19 23:54:00,15.3,7.9,30.20,NW,311,21.0,29.0,72,0.00,,,0.00,Wunderground v.1.15,2013-01-20 05:54:00,